This demonstration page uses our WeatherBlox Daily Observations layout. Learn more.

Left ArrowRight Arrow

Hourly Observations for January 16, 2015

Temp ( °F °C ) Dew Point ( °F °C ) Humidity (%) Winds ( mph kmh ) Pressure ( in mb ) Visibility ( mi km ) Precip ( " mm )
12:16 am 00:16 Clear 30 -1 18 -8 59 59 SW 9 15 30.12 1020 10 16.0934 N/A
12:35 am 00:35 Clear 28 -2 18 -8 64 64 SW 7 11 30.12 1020 10 16.0934 N/A
12:55 am 00:55 Clear 28 -2 18 -8 64 64 SW 7 11 30.12 1020 10 16.0934 N/A
1:15 am 01:15 Clear 28 -2 18 -8 64 64 SW 7 11 30.12 1020 10 16.0934 N/A
1:35 am 01:35 Clear 28 -2 18 -8 64 64 SW 7 11 30.12 1020 10 16.0934 N/A
1:56 am 01:56 Clear 28 -2 18 -8 64 64 SW 6 9 30.12 1020 10 16.0934 N/A
2:15 am 02:15 Clear 27 -3 18 -8 69 69 SW 6 9 30.12 1020 10 16.0934 N/A
2:35 am 02:35 Clear 27 -3 18 -8 69 69 SW 6 9 30.12 1020 10 16.0934 N/A
2:55 am 02:55 Clear 27 -3 18 -8 69 69 SW 6 9 30.15 1021 10 16.0934 N/A
3:15 am 03:15 Clear 27 -3 19 -7 74 74 SW 6 9 30.15 1021 10 16.0934 N/A
3:36 am 03:36 Clear 27 -3 18 -8 69 69 WSW 6 9 30.15 1021 10 16.0934 N/A
3:55 am 03:55 Clear 25 -4 18 -8 74 74 WSW 5 7 30.15 1021 10 16.0934 N/A
4:15 am 04:15 Clear 25 -4 21 -6 86 86 WSW 6 9 30.15 1021 10 16.0934 N/A
4:35 am 04:35 Clear 23 -5 19 -7 86 86 WSW 7 11 30.18 1022 10 16.0934 N/A
4:55 am 04:55 Clear 23 -5 21 -6 93 93 WSW 7 11 30.18 1022 7 11.26538 N/A
5:16 am 05:16 Clear 25 -4 21 -6 86 86 W 8 13 30.15 1021 7 11.26538 N/A
5:35 am 05:35 Clear 23 -5 23 -5 100 100 WSW 7 11 30.18 1022 7 11.26538 N/A
5:55 am 05:55 Clear 23 -5 21 -6 93 93 W 8 13 30.21 1023 7 11.26538 N/A
6:16 am 06:16 Clear 23 -5 23 -5 100 100 W 9 15 30.21 1023 7 11.26538 N/A
6:35 am 06:35 Clear 23 -5 23 -5 100 100 W 7 11 30.21 1023 7 11.26538 N/A
6:55 am 06:55 Clear 23 -5 21 -6 93 93 WSW 8 13 30.21 1023 7 11.26538 N/A
7:15 am 07:15 Clear 23 -5 23 -5 100 100 WSW 9 15 30.24 1024 7 11.26538 N/A
7:35 am 07:35 Clear 23 -5 23 -5 100 100 W 7 11 30.24 1024 7 11.26538 N/A
7:56 am 07:56 Clear 23 -5 23 -5 100 100 W 5 7 30.24 1024 7 11.26538 N/A
8:15 am 08:15 Sunny 21 -6 21 -6 100 100 W 5 7 30.24 1024 5 8.0467 N/A
8:35 am 08:35 Sunny 23 -5 23 -5 100 100 WNW 3 6 30.27 1025 4 6.43736 N/A
8:55 am 08:55 Sunny 23 -5 23 -5 100 100 Calm 30.27 1025 4 6.43736 N/A
9:15 am 09:15 Sunny 27 -3 27 -3 100 100 Calm 30.24 1024 4 6.43736 N/A
9:35 am 09:35 Sunny 28 -2 28 -2 100 100 W 3 6 30.24 1024 5 8.0467 N/A
9:55 am 09:55 Sunny 30 -1 27 -3 86 86 W 5 7 30.24 1024 5 8.0467 N/A
10:15 am 10:15 Sunny 32 0 21 -6 64 64 Calm 30.24 1024 7 11.26538 N/A
10:35 am 10:35 Sunny 32 0 21 -6 64 64 Calm 30.24 1024 7 11.26538 N/A
10:55 am 10:55 Sunny 32 0 19 -7 60 60 Calm 30.24 1024 7 11.26538 N/A
11:16 am 11:16 Sunny 34 1 21 -6 60 60 Calm 30.24 1024 7 11.26538 N/A
11:35 am 11:35 Sunny 34 1 19 -7 56 56 Calm 30.24 1024 7 11.26538 N/A
11:55 am 11:55 Sunny 34 1 21 -6 60 60 Calm 30.24 1024 10 16.0934 N/A
12:15 pm 12:15 Sunny 36 2 19 -7 52 52 Calm 30.24 1024 10 16.0934 N/A
12:35 pm 12:35 Sunny 36 2 19 -7 52 52 Calm 30.24 1024 10 16.0934 N/A
12:56 pm 12:56 Sunny 37 3 21 -6 52 52 Calm 30.24 1024 10 16.0934 N/A
1:15 pm 13:15 Sunny 37 3 21 -6 52 52 Calm 30.24 1024 10 16.0934 N/A
1:35 pm 13:35 Sunny 37 3 19 -7 48 48 Calm 30.24 1024 10 16.0934 N/A
1:55 pm 13:55 Sunny 37 3 21 -6 52 52 Calm 30.24 1024 10 16.0934 N/A
2:15 pm 14:15 Sunny 37 3 21 -6 52 52 Calm 30.21 1023 10 16.0934 N/A
2:35 pm 14:35 Sunny 39 4 21 -6 48 48 Calm 30.21 1023 10 16.0934 N/A
2:55 pm 14:55 Sunny 39 4 21 -6 48 48 Calm 30.21 1023 10 16.0934 N/A
3:16 pm 15:16 Sunny 39 4 19 -7 45 45 Calm 30.21 1023 10 16.0934 N/A
3:35 pm 15:35 Sunny 39 4 21 -6 48 48 Calm 30.21 1023 10 16.0934 N/A
3:55 pm 15:55 Sunny 39 4 21 -6 48 48 E 3 6 30.21 1023 10 16.0934 N/A
4:15 pm 16:15 Sunny 39 4 21 -6 48 48 Calm 30.21 1023 10 16.0934 N/A
4:35 pm 16:35 Sunny 39 4 23 -5 52 52 E 3 6 30.21 1023 10 16.0934 N/A
4:56 pm 16:56 Sunny 39 4 25 -4 56 56 Calm 30.24 1024 10 16.0934 N/A
5:15 pm 17:15 Sunny 37 3 25 -4 60 60 ESE 3 6 30.24 1024 10 16.0934 N/A
5:35 pm 17:35 Sunny 36 2 23 -5 60 60 ESE 5 7 30.21 1023 10 16.0934 N/A
5:55 pm 17:55 Clear 36 2 23 -5 60 60 SE 6 9 30.21 1023 10 16.0934 N/A
6:15 pm 18:15 Clear 34 1 23 -5 65 65 ESE 5 7 30.21 1023 10 16.0934 N/A
6:36 pm 18:36 Clear 34 1 23 -5 65 65 ESE 5 7 30.21 1023 10 16.0934 N/A
6:55 pm 18:55 Clear 32 0 23 -5 69 69 ESE 6 9 30.21 1023 10 16.0934 N/A
7:15 pm 19:15 Clear 32 0 25 -4 75 75 SE 5 7 30.21 1023 7 11.26538 N/A
7:36 pm 19:36 Clear 32 0 23 -5 69 69 SE 5 7 30.21 1023 10 16.0934 N/A
7:55 pm 19:55 Clear 32 0 23 -5 69 69 SE 5 7 30.21 1023 10 16.0934 N/A
8:16 pm 20:16 Clear 32 0 23 -5 69 69 SE 5 7 30.21 1023 10 16.0934 N/A
8:35 pm 20:35 Clear 32 0 23 -5 69 69 SE 6 9 30.21 1023 10 16.0934 N/A
8:55 pm 20:55 Clear 32 0 23 -5 69 69 SSE 3 6 30.21 1023 10 16.0934 N/A
9:16 pm 21:16 Clear 32 0 23 -5 69 69 SE 6 9 30.21 1023 10 16.0934 N/A
9:35 pm 21:35 Clear 32 0 23 -5 69 69 SE 3 6 30.21 1023 10 16.0934 N/A
9:55 pm 21:55 Clear 32 0 23 -5 69 69 SE 6 9 30.21 1023 10 16.0934 N/A
10:15 pm 22:15 Clear 32 0 23 -5 69 69 SE 6 9 30.18 1022 10 16.0934 N/A
10:35 pm 22:35 Clear 32 0 25 -4 75 75 SSE 5 7 30.21 1023 7 11.26538 N/A
10:55 pm 22:55 Clear 32 0 25 -4 75 75 SSE 6 9 30.18 1022 7 11.26538 N/A
11:15 pm 23:15 Clear 32 0 23 -5 69 69 S 5 7 30.18 1022 10 16.0934 N/A
11:35 pm 23:35 Clear 32 0 23 -5 69 69 SSE 5 7 30.18 1022 10 16.0934 N/A
11:56 pm 23:56 Clear 32 0 23 -5 69 69 SSE 6 9 30.21 1023 7 11.26538 N/A

Powered by AerisWeather